Location: ??????
(55.7522°N, 37.6156°E)
Time: 17:04:47
(UTC+00:00)

Cosmos 1943 - Pass Details

Date: 14 June 2025
Orbit: 830 x 849 km, 71.0° (Epoch: 13 July)

Event Time Altitude Azimuth Distance (km) Brightness Sun altitude
Rises 20:07:44 0° 325° (NW) 3,426 8.1 -9.0°
Reaches altitude 10° 20:10:12 10° 322° (NW) 2,488 7.0 -9.1°
Maximum altitude 20:15:52 66° 242° (WSW) 927 3.4 -9.4°
Enters shadow 20:21:04 12° 162° (SSE) 2,316 4.8 -9.6°
